[[{"header":{"parameterUnit":"m.s-1","parameterCategory":1,"la1":30.2991,"la2":30.254,"lo1":-89.0895,"lo2":-89.0444,"dx":0.0017,"dy":0.0017,"nx":28,"ny":28,"refTime":"2022-12-12T03:00:00:Z","depth":0,"parameterNumber":2,"parameterNumberName":"U-component_of_WINDS"},"data":[0,0,0,0,0,0,0,0,0,0,0,0,0,0,0,0,0,0,0,0,0,0,0,0,0,0,0,0,0,0,0,0,0,0,0,0,0,0,0,0,0,0,0,0,0,0,0,0,0,0,0,0,0,0,0,0,0,0,-4.9055,-4.9056,0,-4.908,-4.908,-4.908,-4.9,-4.8997,-4.8995,-4.8992,-4.9017,-4.902,-4.9022,0,0,0,0,0,0,0,0,0,0,0,0,0,-4.894,-4.8943,-4.9055,-4.9056,-4.9056,-4.908,-4.908,-4.908,-4.9,-4.8997,-4.8994,-4.8991,-4.9016,-4.9019,-4.9023,0,0,0,0,0,0,0,0,0,0,0,0,0,-4.898,-4.8943,-4.9055,-4.9019,-4.9016,-4.9079,-4.908,-4.908,-4.9001,-4.8997,-4.8993,-4.899,-4.9015,-4.9019,-4.9023,-4.9123,0,0,-4.9036,-4.9038,0,0,0,0,0,0,0,0,-4.8978,-4.8984,-4.9024,-4.9022,-4.9018,-4.9033,-4.9048,-4.9095,-4.9002,-4.9006,-4.8992,-4.8988,-4.9025,-4.9028,-4.9041,-4.9124,-4.9125,-4.9037,-4.9039,-4.9041,-4.9043,0,0,0,0,0,0,0,-4.8975,-4.8983,-4.9065,-4.9025,-4.9021,-4.9001,-4.9003,-4.9056,-4.9036,-4.9006,-4.9,-4.9004,-4.9023,-4.9037,-4.9041,-4.9125,-4.9037,-4.9041,-4.9043,-4.9045,-4.9292,-4.9295,0,0,0,0,0,0,-4.8977,-4.8981,-4.9064,-4.9066,-4.8989,-4.9006,-4.9008,-4.9032,-4.9035,-4.9032,-4.9007,-4.9,-4.9031,-4.9036,-4.9041,-4.9157,-4.9041,-4.9045,-4.9048,-4.9288,-4.9293,-4.9297,0,0,0,0,0,0,-4.8975,-4.8985,-4.9063,-4.9022,-4.903,-4.9012,-4.9039,-4.9034,-4.9048,-4.9036,-4.9032,-4.9025,-4.9028,-4.9035,-4.9103,-4.9157,-4.9047,-4.9051,-4.9283,-4.9289,-4.9295,-4.9391,0,0,0,0,0,0,-4.8972,-4.8985,-4.9022,-4.9023,-4.9033,-4.9125,-4.9043,-4.9037,-4.9056,-4.9047,-4.9052,-4.9049,-4.9026,-4.9097,-4.9108,-4.9161,-4.9055,-4.9278,-4.9286,-4.9293,-4.9383,-4.94,-4.9414,0,0,0,0,0,-4.8968,-4.9048,-4.9025,-4.9035,-4.9079,-4.9128,-4.9133,-4.9105,-4.9061,-4.9098,-4.9091,-4.9049,-4.915,-4.9105,-4.9116,-4.9172,-4.9275,-4.9284,-4.9292,-4.9376,-4.9396,-4.9413,0,0,0,0,0,0,-4.9053,-4.9048,-4.9021,-4.9104,-4.9118,-4.9114,-4.916,-4.9128,-4.9153,-4.9144,-4.9108,-4.911,-4.9184,-4.9185,-4.9134,-4.9268,-4.9205,-4.9216,-4.9265,-4.9284,-4.9299,-4.9296,-4.9058,0,0,0,0,0,-4.9082,-4.9123,-4.9115,-4.9189,-4.9197,-4.9178,-4.9198,-4.9176,-4.9188,-4.9193,-4.919,-4.9203,-4.9238,-4.9261,-4.9292,-4.9384,-4.9383,-4.9428,-4.9443,-4.9456,-4.9465,-4.9513,-4.9533,-4.9326,-4.9326,-4.9326,0,0,-4.9141,-4.9143,-4.9171,-4.9207,-4.9214,-4.9256,-4.9183,-4.9231,-4.9262,-4.92,-4.9263,-4.9263,-4.9275,-4.9355,-4.939,-4.9358,-4.9523,-4.9467,-4.9477,-4.948,-4.9524,-4.9544,-4.9561,-4.9332,-4.9331,-4.933,0,0,-4.927,-4.9277,-4.9338,-4.9348,-4.936,-4.9348,-4.9363,-4.9365,-4.9362,-4.9426,-4.938,-4.9417,-4.9478,-4.9488,-4.9502,-4.9638,-4.96,-4.9649,-4.9728,-4.9775,-4.9792,-4.9806,-4.9853,-4.987,-4.9659,-4.9659,-4.966,0,-4.9342,-4.9404,-4.9374,-4.9425,-4.9442,-4.939,-4.9452,-4.9463,-4.9485,-4.9498,-4.9462,-4.9537,-4.9542,-4.9623,-4.9657,-4.967,-4.9686,-4.9647,-4.9792,-4.9806,-4.9819,-4.9863,-4.9881,-4.9665,-4.9664,-4.9664,-4.9663,0,-4.9491,-4.9535,-4.9583,-4.9607,-4.9629,-4.9686,-4.9665,-4.9692,-4.9669,-4.966,-4.9726,-4.973,-4.9761,-4.978,-4.9757,-4.9858,-4.9838,-4.9798,-4.9732,-4.9844,-4.9885,-4.9902,-4.9673,-4.9671,-4.967,-4.9668,0,0,-4.9671,-4.9679,-4.9697,-4.9707,-4.9718,-4.9751,-4.9807,-4.9837,-4.9861,-4.9879,-4.9923,-4.9977,-4.994,-4.9955,-4.9934,-4.9976,-5.0082,-4.993,-4.993,-4.9957,-5.0193,-5.0221,-5.0241,-5.0058,-5.0062,-5.0064,-5.0191,0,-4.9796,-4.989,-4.9866,-4.9959,-4.9999,-4.9951,-4.9998,-5.0011,-5.0005,-5.0038,-5.0031,-5.0069,-5.0018,-5.0027,-5.0067,-5.0061,-5.0128,-5.0051,-5.0098,-5.01,-5.0094,-5.0263,-5.0292,-5.0411,-5.0207,-5.021,-5.0212,0,-4.9954,-4.9979,-5.0076,-5.0081,-5.0097,-5.014,-5.0167,-5.02,-5.0213,-5.0206,-5.0224,-5.0195,-5.0249,-5.0186,-5.026,-5.0208,-5.0226,-5.0227,-5.0231,-5.0231,-5.0161,-5.0266,-5.0449,-5.0466,-5.0237,-5.0235,-5.0233,0,-5.0074,-5.0131,-5.0197,-5.0207,-5.0215,-5.0247,-5.0252,-5.0262,-5.0282,-5.0306,-5.0319,-5.0349,-5.0365,-5.0389,-5.0369,-5.0325,-5.0446,-5.0381,-5.044,-5.0441,-5.0465,-5.0463,-5.0651,-5.0482,-5.0481,-5.0481,-5.0481,0,-5.0214,-5.0275,-5.025,-5.029,-5.0357,-5.033,-5.0397,-5.0397,-5.0406,-5.0445,-5.0407,-5.0444,-5.0416,-5.0451,-5.0436,-5.0499,-5.0507,-5.0502,-5.0497,-5.0504,-5.0504,-5.0513,-5.0503,-5.0486,-5.0485,-5.0484,-5.0483,0,-5.0358,-5.0344,-5.0412,-5.0415,-5.0417,-5.0466,-5.0469,-5.0506,-5.0498,-5.0548,-5.0558,-5.0546,-5.0585,-5.0568,-5.061,-5.06,-5.068,-5.0665,-5.0675,-5.067,-5.073,-5.0723,-5.0928,-5.0952,-5.0769,-5.0771,-5.0773,0,-5.0447,-5.0493,-5.0501,-5.0525,-5.0533,-5.0571,-5.0592,-5.0569,-5.0592,-5.0611,-5.0646,-5.0683,-5.071,-5.0775,-5.077,-5.0802,-5.0786,-5.0856,-5.079,-5.0796,-5.0784,-5.0781,-5.0785,-5.0867,-5.087,-5.0871,-5.0873,0,-5.0607,-5.0598,-5.063,-5.066,-5.0687,-5.0709,-5.0728,-5.075,-5.0727,-5.0755,-5.0795,-5.0817,-5.086,-5.0896,-5.0925,-5.0929,-5.0897,-5.0894,-5.0909,-5.0915,-5.0918,-5.0915,-5.0708,-5.0888,-5.0887,-5.0886,-5.0885,-5.0884,-5.0724,-5.0762,-5.0775,-5.0812,-5.0824,-5.0843,-5.0878,-5.0875,-5.0909,-5.0942,-5.0926,-5.0973,-5.0986,-5.1021,-5.103,-5.1066,-5.1039,-5.1061,-5.1066,-5.1071,-5.1078,-5.0915,-5.1072,-5.1071,-5.1071,-5.1071,-5.107,0,-5.088,-5.0886,-5.0921,-5.0949,-5.0978,-5.0947,-5.0967,-5.0993,-5.1035,-5.105,-5.1079,-5.1125,-5.1161,-5.1159,-5.1192,-5.1221,-5.1207,-5.123,-5.1226,-5.1228,-5.1102,-5.1084,-5.1241,-5.1241,-5.1241,-5.1241,-5.1241,-5.1241,-5.0964,-5.1027,-5.102,-5.1089,-5.1095,-5.114,-5.1154,-5.1172,-5.1184,-5.1237,-5.1267,-5.1266,-5.1275,-5.1308,-5.1339,-5.1338,-5.1351,-5.1379,-5.1372,-5.1254,-5.1237,-5.122,-5.1204,-5.1383,-5.1383,-5.1495,-5.1496,-5.1496]},{"header":{"parameterUnit":"m.s-1","parameterCategory":1,"la1":30.2991,"la2":30.254,"lo1":-89.0895,"lo2":-89.0444,"dx":0.0017,"dy":0.0017,"nx":28,"ny":28,"refTime":"2022-12-12T03:00:00:Z","depth":0,"parameterNumber":3,"parameterNumberName":"V-component_of_WINDS"},"data":[0,0,0,0,0,0,0,0,0,0,0,0,0,0,0,0,0,0,0,0,0,0,0,0,0,0,0,0,0,0,0,0,0,0,0,0,0,0,0,0,0,0,0,0,0,0,0,0,0,0,0,0,0,0,0,0,0,0,2.009,2.009,0,2.0038,2.0037,2.0037,2.0015,2.0016,2.0016,2.0016,1.9958,1.9957,1.9955,0,0,0,0,0,0,0,0,0,0,0,0,0,2.0169,2.0168,2.009,2.009,2.0089,2.0038,2.0037,2.0037,2.0015,2.0016,2.0016,2.0016,1.9959,1.9957,1.9955,0,0,0,0,0,0,0,0,0,0,0,0,0,2.0128,2.0168,2.0091,2.0073,2.007,2.0038,2.0037,2.0036,2.0015,2.0016,2.0016,2.0016,1.9959,1.9957,1.9955,1.9935,0,0,1.9947,1.9946,0,0,0,0,0,0,0,0,2.013,2.0125,2.0076,2.0074,2.0071,2.0034,2.0044,2.0002,2.0015,2.0036,2.0016,2.0016,1.9983,1.9979,1.9968,1.9933,1.993,1.9947,1.9945,1.9944,1.9944,0,0,0,0,0,0,0,2.0133,2.0127,2.007,2.0075,2.0072,2.0066,2.006,2.0036,2.0009,2.0034,2.0033,2.0027,1.9982,1.9971,1.9967,1.9929,1.9947,1.9945,1.9943,1.9942,1.9877,1.9876,0,0,0,0,0,0,2.0139,2.013,2.0071,2.0068,2.0102,2.0065,2.0058,2.0045,2.0009,2.0004,2.0027,2.0026,1.9975,1.997,1.9964,1.994,1.9944,1.9942,1.994,1.9877,1.9877,1.9876,0,0,0,0,0,0,2.0141,2.0134,2.0073,2.0098,2.009,2.0063,2.0049,2.0044,2.0033,2.0004,1.9998,2.0021,1.9975,1.9968,1.9943,1.9938,1.9941,1.9939,1.9877,1.9877,1.9876,1.9892,0,0,0,0,0,0,2.0144,2.0135,2.0128,2.0098,2.0089,2.0054,2.0048,2.0043,2.0029,2.0028,1.9996,1.9991,1.9974,1.9947,1.9941,1.9935,1.9937,1.9877,1.9877,1.9877,1.9891,1.9892,1.9892,0,0,0,0,0,2.0147,2.0133,2.0128,2.0121,2.008,2.0054,2.0048,2.003,2.0029,2.0021,2.0003,1.9992,1.994,1.9945,1.9937,1.993,1.9878,1.9877,1.9877,1.9891,1.9892,1.9892,0,0,0,0,0,0,2.0161,2.0129,2.0123,2.01,2.008,2.005,2.004,2.0031,2.0009,2.0009,1.9986,1.9979,1.9957,1.9941,1.9947,1.9911,1.9908,1.9906,1.9922,1.9922,1.9922,1.9926,1.9935,0,0,0,0,0,2.0162,2.0145,2.0117,2.0099,2.009,2.0067,2.0055,2.0043,2.0021,2.0012,1.9991,1.9969,1.9948,1.9934,1.9912,1.9889,1.9882,1.9881,1.9881,1.9882,1.988,1.9868,1.9867,1.9874,1.9874,1.9874,0,0,2.0163,2.0143,2.0133,2.0102,2.0085,2.0067,2.006,2.004,2.0026,2.0008,1.9984,1.9968,1.9942,1.9919,1.9907,1.9905,1.9877,1.9881,1.9882,1.988,1.9867,1.9866,1.9866,1.9874,1.9874,1.9874,0,0,2.0156,2.0139,2.0123,2.0107,2.0083,2.0068,2.0064,2.0036,2.0025,2.0001,1.9988,1.997,1.9934,1.9916,1.9902,1.9891,1.988,1.9884,1.9886,1.9874,1.9873,1.9873,1.9869,1.9868,1.9883,1.9883,1.9883,0,2.016,2.0133,2.0116,2.0098,2.0085,2.0069,2.0053,2.0038,2.0007,1.9997,1.9996,1.9951,1.9932,1.9905,1.9902,1.9891,1.9886,1.9887,1.9875,1.9874,1.9873,1.9869,1.9868,1.9883,1.9883,1.9883,1.9883,0,2.0139,2.0121,2.0111,2.0084,2.0069,2.0052,2.0032,2.0019,2.0009,1.9994,1.997,1.9947,1.9922,1.9914,1.9903,1.9886,1.9885,1.988,1.9876,1.9874,1.987,1.9868,1.9884,1.9884,1.9884,1.9884,0,0,2.0138,2.0104,2.01,2.0088,2.0061,2.0046,2.0028,2.0005,1.9995,1.9974,1.9958,1.9929,1.9924,1.9909,1.9896,1.9885,1.9878,1.9881,1.988,1.9881,1.9858,1.9863,1.9861,1.9872,1.9871,1.9871,1.9861,0,2.0128,2.0097,2.0082,2.0057,2.004,2.0026,2.0011,1.9992,1.9978,1.9961,1.9945,1.9925,1.992,1.991,1.99,1.9881,1.9873,1.9882,1.9856,1.9856,1.9864,1.9859,1.9863,1.9854,1.9859,1.9858,1.9858,0,2.0111,2.0093,2.0067,2.0043,2.0035,2.0022,2.0,1.9984,1.9963,1.9953,1.9937,1.9925,1.9905,1.9904,1.9877,1.9883,1.9872,1.9862,1.9861,1.9857,1.9857,1.9856,1.9851,1.985,1.9856,1.9856,1.9856,0,2.0114,2.0082,2.0064,2.0054,2.0025,2.0016,2.0003,1.9982,1.997,1.995,1.9942,1.9919,1.9907,1.989,1.9872,1.9873,1.9847,1.9844,1.9838,1.9839,1.9833,1.9833,1.9826,1.9826,1.9826,1.9826,1.9826,0,2.0103,2.0088,2.0065,2.0053,2.0036,2.0018,2.0001,1.9988,1.9969,1.9954,1.994,1.9926,1.9903,1.9886,1.9872,1.9852,1.9846,1.9838,1.9834,1.9839,1.984,1.9831,1.9831,1.9825,1.9826,1.9826,1.9826,0,2.0103,2.0087,2.0065,2.0041,2.0034,2.0023,2.0001,1.9989,1.9975,1.9956,1.9951,1.9928,1.9907,1.9888,1.986,1.985,1.983,1.9825,1.9838,1.9836,1.9831,1.9832,1.9818,1.9815,1.9817,1.9817,1.9817,0,2.0098,2.0086,2.0061,2.0051,2.0039,2.0022,2.001,1.9993,1.998,1.9956,1.9947,1.9925,1.9907,1.9875,1.9856,1.9834,1.9829,1.9826,1.9825,1.9831,1.9829,1.983,1.9829,1.9826,1.9826,1.9826,1.9826,0,2.009,2.0083,2.0066,2.0047,2.0034,2.0017,2.0001,1.9993,1.9972,1.9959,1.9939,1.9925,1.9897,1.9876,1.9853,1.9839,1.9829,1.9826,1.9824,1.9829,1.9837,1.9833,1.9839,1.9826,1.9826,1.9826,1.9826,1.9826,2.0087,2.0076,2.0058,2.004,2.0026,2.0011,1.9999,1.9985,1.9968,1.9945,1.9936,1.9915,1.9895,1.9863,1.9849,1.9832,1.983,1.9826,1.9825,1.9825,1.9826,1.984,1.9828,1.9828,1.9828,1.9828,1.9828,0,2.0078,2.0066,2.0051,2.0029,2.0015,2.0009,1.999,1.9978,1.9961,1.9944,1.9927,1.9904,1.9884,1.9864,1.9843,1.9833,1.9828,1.9828,1.9829,1.9826,1.9829,1.9834,1.9833,1.9833,1.9833,1.9833,1.9833,1.9833,2.0073,2.0055,2.0046,2.0022,2.0009,1.999,1.998,1.9966,1.9953,1.9928,1.9912,1.99,1.9881,1.9859,1.984,1.9834,1.9827,1.9829,1.9822,1.9825,1.9825,1.9825,1.9829,1.9827,1.9827,1.982,1.982,1.982]}]]